• In Uzbekistan
  • List of Countries
  • For 7 days
  • Water Temperature
  • Weather Map
  • Weather Widgets
  • user-avatar
    Login

    Hourly Weather Idzhewan

    Today, 25 February, Tuesday

    Time Temperature Precipitation Wind Pressure Humidity
    00:00 +5°C° 0 mm 3 mps 687 mmHg 72%
    01:00 +5°C° 0 mm 3 mps 687 mmHg 72%
    02:00 +5°C° 0 mm 3 mps 686 mmHg 72%
    03:00 +5°C° 0 mm 3 mps 686 mmHg 71%
    04:00 +5°C° 0 mm 3 mps 686 mmHg 71%
    05:00 +5°C° 0 mm 3 mps 686 mmHg 71%
    06:00 +5°C° 0 mm 3 mps 686 mmHg 71%
    07:00 +5°C° 0.3 mm 2 mps 686 mmHg 77%
    08:00 +5°C° 0.3 mm 2 mps 685 mmHg 83%
    09:00 +6°C° 0.3 mm 1 mps 685 mmHg 89%
    10:00 +4°C° 1.3 mm 2 mps 685 mmHg 88%
    11:00 +4°C° 1.3 mm 2 mps 685 mmHg 88%
    12:00 +3°C° 1.3 mm 3 mps 685 mmHg 88%
    13:00 +3°C° 0.8 mm 3 mps 686 mmHg 84%
    14:00 +3°C° 0.8 mm 3 mps 686 mmHg 80%
    15:00 +3°C° 0.8 mm 3 mps 687 mmHg 76%
    16:00 +2°C° 0 mm 3 mps 688 mmHg 73%
    17:00 +2°C° 0 mm 2 mps 689 mmHg 70%
    18:00 +2°C° 0 mm 2 mps 690 mmHg 67%
    19:00 +1°C° 0 mm 2 mps 690 mmHg 66%
    20:00 -1°C° 0 mm 2 mps 691 mmHg 65%
    21:00 -1°C° 0 mm 2 mps 692 mmHg 64%
    22:00 -2°C° 0 mm 2 mps 692 mmHg 64%
    23:00 -2°C° 0 mm 2 mps 692 mmHg 64%

    Tomorrow, 26 February, Wednesday

    Time Temperature Precipitation Wind Pressure Humidity
    00:00 -2°C° 0 mm 2 mps 692 mmHg 63%
    01:00 -3°C° 0 mm 2 mps 692 mmHg 62%
    02:00 -3°C° 0 mm 2 mps 692 mmHg 61%
    03:00 -1°C° 0 mm 1 mps 692 mmHg 61%
    04:00 -1°C° 0 mm 1 mps 692 mmHg 61%
    05:00 -1°C° 0 mm 1 mps 693 mmHg 61%
    06:00 -1°C° 0 mm 1 mps 693 mmHg 61%
    07:00 0°C° 0 mm 1 mps 693 mmHg 59%
    08:00 +1°C° 0 mm 1 mps 694 mmHg 56%
    09:00 +2°C° 0 mm 0 mps 695 mmHg 54%
    10:00 +4°C° 0 mm 1 mps 695 mmHg 54%
    11:00 +4°C° 0 mm 1 mps 695 mmHg 55%
    12:00 +5°C° 0 mm 1 mps 695 mmHg 55%
    13:00 +5°C° 0 mm 1 mps 694 mmHg 55%
    14:00 +6°C° 0 mm 1 mps 694 mmHg 56%
    15:00 +6°C° 0 mm 1 mps 694 mmHg 56%
    16:00 +5°C° 0 mm 1 mps 694 mmHg 60%
    17:00 +4°C° 0 mm 1 mps 695 mmHg 64%
    18:00 +2°C° 0 mm 0 mps 695 mmHg 69%
    19:00 +3°C° 0 mm 1 mps 695 mmHg 67%
    20:00 +2°C° 0 mm 1 mps 695 mmHg 66%
    21:00 +1°C° 0 mm 2 mps 696 mmHg 64%
    22:00 +1°C° 0 mm 2 mps 695 mmHg 62%
    23:00 +1°C° 0 mm 2 mps 695 mmHg 60%

    Day after tomorrow, 27 February, Thursday

    Time Temperature Precipitation Wind Pressure Humidity
    00:00 +1°C° 0 mm 2 mps 695 mmHg 58%
    01:00 +1°C° 0 mm 2 mps 695 mmHg 57%
    02:00 +1°C° 0 mm 2 mps 695 mmHg 55%
    03:00 0°C° 0 mm 3 mps 695 mmHg 54%
    04:00 0°C° 0 mm 3 mps 695 mmHg 54%
    05:00 0°C° 0 mm 3 mps 695 mmHg 53%
    06:00 0°C° 0 mm 3 mps 695 mmHg 52%
    07:00 +2°C° 0 mm 3 mps 695 mmHg 51%
    08:00 +3°C° 0 mm 3 mps 695 mmHg 50%
    09:00 +6°C° 0 mm 2 mps 696 mmHg 48%
    10:00 +7°C° 0 mm 2 mps 695 mmHg 48%
    11:00 +9°C° 0 mm 2 mps 695 mmHg 48%
    12:00 +10°C° 0 mm 2 mps 695 mmHg 48%
    13:00 +12°C° 0 mm 2 mps 694 mmHg 48%
    14:00 +12°C° 0 mm 2 mps 694 mmHg 47%
    15:00 +12°C° 0 mm 2 mps 694 mmHg 47%
    16:00 +10°C° 0 mm 2 mps 693 mmHg 48%
    17:00 +8°C° 0 mm 3 mps 693 mmHg 50%
    18:00 +7°C° 0 mm 3 mps 693 mmHg 51%
    19:00 +5°C° 0 mm 3 mps 693 mmHg 49%
    20:00 +5°C° 0 mm 3 mps 692 mmHg 47%
    21:00 +5°C° 0 mm 4 mps 692 mmHg 45%
    22:00 +5°C° 0 mm 4 mps 692 mmHg 46%
    23:00 +5°C° 0 mm 4 mps 692 mmHg 46%

    28 February, Friday

    Time Temperature Precipitation Wind Pressure Humidity
    00:00 +4°C° 0 mm 4 mps 691 mmHg 46%
    01:00 +4°C° 0 mm 4 mps 691 mmHg 46%
    02:00 +4°C° 0 mm 4 mps 690 mmHg 45%
    03:00 +4°C° 0 mm 4 mps 690 mmHg 45%
    04:00 +4°C° 0 mm 4 mps 690 mmHg 45%
    05:00 +4°C° 0 mm 4 mps 689 mmHg 45%
    06:00 +4°C° 0 mm 4 mps 689 mmHg 45%
    07:00 +5°C° 0 mm 4 mps 689 mmHg 44%
    08:00 +6°C° 0 mm 4 mps 689 mmHg 43%
    09:00 +7°C° 0 mm 4 mps 689 mmHg 42%
    10:00 +10°C° 0 mm 4 mps 689 mmHg 40%
    11:00 +11°C° 0 mm 3 mps 689 mmHg 38%
    12:00 +13°C° 0 mm 3 mps 689 mmHg 36%
    13:00 +13°C° 0 mm 4 mps 688 mmHg 38%
    14:00 +13°C° 0 mm 4 mps 688 mmHg 40%
    15:00 +13°C° 0 mm 4 mps 688 mmHg 42%
    16:00 +11°C° 0 mm 4 mps 688 mmHg 47%
    17:00 +10°C° 0 mm 3 mps 688 mmHg 53%
    18:00 +8°C° 0 mm 3 mps 688 mmHg 58%
    19:00 +7°C° 0 mm 3 mps 688 mmHg 61%
    20:00 +6°C° 0 mm 2 mps 689 mmHg 65%
    21:00 +6°C° 0 mm 2 mps 689 mmHg 68%
    22:00 +5°C° 0 mm 2 mps 689 mmHg 69%
    23:00 +6°C° 0 mm 1 mps 689 mmHg 71%

    29 February, Saturday

    Time Temperature Precipitation Wind Pressure Humidity
    00:00 +6°C° 0 mm 1 mps 689 mmHg 72%
    01:00 +5°C° 0 mm 1 mps 689 mmHg 72%
    02:00 +5°C° 0 mm 1 mps 689 mmHg 73%
    03:00 +4°C° 0 mm 2 mps 689 mmHg 73%
    04:00 +4°C° 0 mm 2 mps 689 mmHg 73%
    05:00 +4°C° 0 mm 2 mps 689 mmHg 73%
    06:00 +4°C° 0 mm 2 mps 689 mmHg 73%
    07:00 +5°C° 0 mm 2 mps 689 mmHg 69%
    08:00 +7°C° 0 mm 2 mps 689 mmHg 65%
    09:00 +8°C° 0 mm 2 mps 689 mmHg 60%
    10:00 +9°C° 0 mm 2 mps 688 mmHg 57%
    11:00 +10°C° 0 mm 2 mps 688 mmHg 54%
    12:00 +12°C° 0 mm 2 mps 687 mmHg 51%
    13:00 +12°C° 0 mm 2 mps 687 mmHg 52%
    14:00 +12°C° 0 mm 2 mps 686 mmHg 53%
    15:00 +12°C° 0 mm 2 mps 685 mmHg 53%
    16:00 +11°C° 0 mm 1 mps 685 mmHg 59%
    17:00 +10°C° 0 mm 1 mps 685 mmHg 65%
    18:00 +9°C° 0 mm 1 mps 685 mmHg 71%
    19:00 +8°C° 0 mm 1 mps 685 mmHg 73%
    20:00 +7°C° 0 mm 1 mps 685 mmHg 75%
    21:00 +7°C° 0 mm 1 mps 685 mmHg 77%
    22:00 +6°C° 0.6 mm 1 mps 685 mmHg 83%
    23:00 +4°C° 0.6 mm 2 mps 685 mmHg 89%

    1 March, Sunday

    Time Temperature Precipitation Wind Pressure Humidity
    00:00 +3°C° 0.6 mm 2 mps 685 mmHg 95%
    01:00 +3°C° 1.8 mm 2 mps 685 mmHg 93%
    02:00 +2°C° 1.8 mm 2 mps 685 mmHg 92%
    03:00 +2°C° 1.8 mm 2 mps 686 mmHg 90%
    04:00 0°C° 0.1 mm 3 mps 686 mmHg 85%
    05:00 0°C° 0.1 mm 3 mps 686 mmHg 80%
    06:00 -1°C° 0.1 mm 3 mps 687 mmHg 76%
    07:00 0°C° 0 mm 3 mps 687 mmHg 69%
    08:00 0°C° 0 mm 4 mps 688 mmHg 62%
    09:00 +1°C° 0 mm 5 mps 689 mmHg 55%
    10:00 +1°C° 0 mm 6 mps 689 mmHg 53%
    11:00 +2°C° 0 mm 6 mps 689 mmHg 52%
    12:00 +2°C° 0 mm 7 mps 690 mmHg 51%
    13:00 +2°C° 0 mm 7 mps 690 mmHg 50%
    14:00 +2°C° 0 mm 7 mps 690 mmHg 49%
    15:00 +2°C° 0 mm 7 mps 690 mmHg 48%
    16:00 +1°C° 0 mm 6 mps 691 mmHg 52%
    17:00 0°C° 0 mm 5 mps 692 mmHg 56%
    18:00 0°C° 0 mm 3 mps 692 mmHg 61%
    19:00 -1°C° 0 mm 3 mps 693 mmHg 62%
    20:00 -1°C° 0 mm 3 mps 694 mmHg 64%
    21:00 -2°C° 0 mm 3 mps 694 mmHg 66%
    22:00 -2°C° 0 mm 3 mps 695 mmHg 65%
    23:00 -4°C° 0 mm 3 mps 695 mmHg 64%
    Show more